Year,Month,Day,Hour,Minute,Value (Times are PST for temperature in C)
2009,07,23,00,00,19.50
2009,07,23,00,01,19.50
2009,07,23,00,02,19.50
2009,07,23,00,03,19.50
2009,07,23,00,04,19.40
2009,07,23,00,05,19.40
2009,07,23,00,06,19.30
2009,07,23,00,07,19.30
2009,07,23,00,08,19.30
2009,07,23,00,09,19.20
2009,07,23,00,10,19.20
2009,07,23,00,11,19.20
2009,07,23,00,12,19.20
2009,07,23,00,13,19.20
2009,07,23,00,14,19.20
2009,07,23,00,15,19.20
2009,07,23,00,16,19.10
2009,07,23,00,17,19.10
2009,07,23,00,18,19.10
2009,07,23,00,19,19.10
2009,07,23,00,20,19.10
2009,07,23,00,21,19.10
2009,07,23,00,22,19.10
2009,07,23,00,23,19.00
2009,07,23,00,24,19.00
2009,07,23,00,25,19.00
2009,07,23,00,26,18.90
2009,07,23,00,27,18.90
2009,07,23,00,28,18.90
2009,07,23,00,29,18.90
2009,07,23,00,30,18.90
2009,07,23,00,31,18.90
2009,07,23,00,32,18.90
2009,07,23,00,33,18.90
2009,07,23,00,34,18.80
2009,07,23,00,35,18.80
2009,07,23,00,36,18.80
2009,07,23,00,37,18.80
2009,07,23,00,38,18.80
2009,07,23,00,39,18.80
2009,07,23,00,40,18.80
2009,07,23,00,41,18.70
2009,07,23,00,42,18.70
2009,07,23,00,43,18.70
2009,07,23,00,44,18.70
2009,07,23,00,45,18.70
2009,07,23,00,46,18.70
2009,07,23,00,47,18.70
2009,07,23,00,48,18.70
2009,07,23,00,49,18.70
2009,07,23,00,50,18.70
2009,07,23,00,51,18.60
2009,07,23,00,52,18.60
2009,07,23,00,53,18.60
2009,07,23,00,54,18.60
2009,07,23,00,55,18.50
2009,07,23,00,56,18.50
2009,07,23,00,57,18.50
2009,07,23,00,58,18.50
2009,07,23,00,59,18.40
2009,07,23,01,00,18.40
2009,07,23,01,01,18.40
2009,07,23,01,02,18.40
2009,07,23,01,03,18.40
2009,07,23,01,04,18.30
2009,07,23,01,05,18.30
2009,07,23,01,06,18.30
2009,07,23,01,07,18.30
2009,07,23,01,08,18.30
2009,07,23,01,09,18.20
2009,07,23,01,10,18.20
2009,07,23,01,11,18.20
2009,07,23,01,12,18.20
2009,07,23,01,13,18.20
2009,07,23,01,14,18.20
2009,07,23,01,15,18.10
2009,07,23,01,16,18.10
2009,07,23,01,17,18.10
2009,07,23,01,18,18.10
2009,07,23,01,19,18.10
2009,07,23,01,20,18.00
2009,07,23,01,21,18.00
2009,07,23,01,22,18.00
2009,07,23,01,23,18.00
2009,07,23,01,24,17.90
2009,07,23,01,25,17.90
2009,07,23,01,26,17.90
2009,07,23,01,27,17.90
2009,07,23,01,28,17.90
2009,07,23,01,29,17.80
2009,07,23,01,30,17.80
2009,07,23,01,31,17.80
2009,07,23,01,32,17.80
2009,07,23,01,33,17.80
2009,07,23,01,34,17.80
2009,07,23,01,35,17.80
2009,07,23,01,36,17.70
2009,07,23,01,37,17.70
2009,07,23,01,38,17.70
2009,07,23,01,39,17.70
2009,07,23,01,40,17.70
2009,07,23,01,41,17.70
2009,07,23,01,42,17.60
2009,07,23,01,43,17.60
2009,07,23,01,44,17.60
2009,07,23,01,45,17.60
2009,07,23,01,46,17.60
2009,07,23,01,47,17.60
2009,07,23,01,48,17.60
2009,07,23,01,49,17.50
2009,07,23,01,50,17.50
2009,07,23,01,51,17.50
2009,07,23,01,52,17.50
2009,07,23,01,53,17.50
2009,07,23,01,54,17.40
2009,07,23,01,55,17.40
2009,07,23,01,56,17.40
2009,07,23,01,57,17.40
2009,07,23,01,58,17.40
2009,07,23,01,59,17.40
2009,07,23,02,00,17.40
2009,07,23,02,01,17.40
2009,07,23,02,02,17.30
2009,07,23,02,03,17.30
2009,07,23,02,04,17.30
2009,07,23,02,05,17.30
2009,07,23,02,06,17.30
2009,07,23,02,07,17.30
2009,07,23,02,08,17.30
2009,07,23,02,09,17.40
2009,07,23,02,10,17.40
2009,07,23,02,11,17.40
2009,07,23,02,12,17.40
2009,07,23,02,13,17.40
2009,07,23,02,14,17.40
2009,07,23,02,15,17.40
2009,07,23,02,16,17.40
2009,07,23,02,17,17.30
2009,07,23,02,18,17.30
2009,07,23,02,19,17.30
2009,07,23,02,20,17.30
2009,07,23,02,21,17.30
2009,07,23,02,22,17.30
2009,07,23,02,23,17.30
2009,07,23,02,24,17.30
2009,07,23,02,25,17.30
2009,07,23,02,26,17.30
2009,07,23,02,27,17.30
2009,07,23,02,28,17.30
2009,07,23,02,29,17.30
2009,07,23,02,30,17.30
2009,07,23,02,31,17.20
2009,07,23,02,32,17.20
2009,07,23,02,33,17.20
2009,07,23,02,34,17.20
2009,07,23,02,35,17.20
2009,07,23,02,36,17.20
2009,07,23,02,37,17.10
2009,07,23,02,38,17.10
2009,07,23,02,39,17.10
2009,07,23,02,40,17.10
2009,07,23,02,41,17.10
2009,07,23,02,42,17.00
2009,07,23,02,43,17.00
2009,07,23,02,44,17.00
2009,07,23,02,45,16.90
2009,07,23,02,46,16.90
2009,07,23,02,47,16.90
2009,07,23,02,48,16.90
2009,07,23,02,49,16.90
2009,07,23,02,50,16.90
2009,07,23,02,51,16.90
2009,07,23,02,52,16.80
2009,07,23,02,53,16.80
2009,07,23,02,54,16.80
2009,07,23,02,55,16.90
2009,07,23,02,56,16.80
2009,07,23,02,57,16.80
2009,07,23,02,58,16.80
2009,07,23,02,59,16.80
2009,07,23,03,00,16.80
2009,07,23,03,01,16.80
2009,07,23,03,02,16.80
2009,07,23,03,03,16.80
2009,07,23,03,04,16.70
2009,07,23,03,05,16.70
2009,07,23,03,06,16.70
2009,07,23,03,07,16.70
2009,07,23,03,08,16.60
2009,07,23,03,09,16.60
2009,07,23,03,10,16.60
2009,07,23,03,11,16.60
2009,07,23,03,12,16.60
2009,07,23,03,13,16.60
2009,07,23,03,14,16.50
2009,07,23,03,15,16.50
2009,07,23,03,16,16.50
2009,07,23,03,17,16.50
2009,07,23,03,18,16.50
2009,07,23,03,19,16.40
2009,07,23,03,20,16.40
2009,07,23,03,21,16.40
2009,07,23,03,22,16.40
2009,07,23,03,23,16.40
2009,07,23,03,24,16.40
2009,07,23,03,25,16.30
2009,07,23,03,26,16.30
2009,07,23,03,27,16.30
2009,07,23,03,28,16.30
2009,07,23,03,29,16.30
2009,07,23,03,30,16.30
2009,07,23,03,31,16.20
2009,07,23,03,32,16.20
2009,07,23,03,33,16.20
2009,07,23,03,34,16.20
2009,07,23,03,35,16.10
2009,07,23,03,36,16.10
2009,07,23,03,37,16.10
2009,07,23,03,38,16.10
2009,07,23,03,39,16.10
2009,07,23,03,40,16.00
2009,07,23,03,41,16.00
2009,07,23,03,42,16.00
2009,07,23,03,43,16.00
2009,07,23,03,44,15.90
2009,07,23,03,45,15.90
2009,07,23,03,46,15.90
2009,07,23,03,47,15.90
2009,07,23,03,48,15.90
2009,07,23,03,49,15.80
2009,07,23,03,50,15.80
2009,07,23,03,51,15.80
2009,07,23,03,52,15.80
2009,07,23,03,53,15.80
2009,07,23,03,54,15.80
2009,07,23,03,55,15.80
2009,07,23,03,56,15.80
2009,07,23,03,57,15.80
2009,07,23,03,58,15.80
2009,07,23,03,59,15.70
2009,07,23,04,00,15.70
2009,07,23,04,01,15.70
2009,07,23,04,02,15.70
2009,07,23,04,03,15.70
2009,07,23,04,04,15.70
2009,07,23,04,05,15.60
2009,07,23,04,06,15.60
2009,07,23,04,07,15.60
2009,07,23,04,08,15.60
2009,07,23,04,09,15.60
2009,07,23,04,10,15.60
2009,07,23,04,11,15.60
2009,07,23,04,12,15.50
2009,07,23,04,13,15.50
2009,07,23,04,14,15.50
2009,07,23,04,15,15.50
2009,07,23,04,16,15.40
2009,07,23,04,17,15.40
2009,07,23,04,18,15.40
2009,07,23,04,19,15.40
2009,07,23,04,20,15.40
2009,07,23,04,21,15.40
2009,07,23,04,22,15.30
2009,07,23,04,23,15.30
2009,07,23,04,24,15.30
2009,07,23,04,25,15.30
2009,07,23,04,26,15.30
2009,07,23,04,27,15.30
2009,07,23,04,28,15.20
2009,07,23,04,29,15.20
2009,07,23,04,30,15.20
2009,07,23,04,31,15.10
2009,07,23,04,32,15.10
2009,07,23,04,33,15.00
2009,07,23,04,34,15.00
2009,07,23,04,35,15.00
2009,07,23,04,36,15.00
2009,07,23,04,37,15.00
2009,07,23,04,38,15.00
2009,07,23,04,39,15.00
2009,07,23,04,40,15.00
2009,07,23,04,41,15.00
2009,07,23,04,42,15.00
2009,07,23,04,43,15.00
2009,07,23,04,44,14.90
2009,07,23,04,45,14.80
2009,07,23,04,46,14.80
2009,07,23,04,47,14.80
2009,07,23,04,48,14.80
2009,07,23,04,49,14.70
2009,07,23,04,50,14.70
2009,07,23,04,51,14.70
2009,07,23,04,52,14.70
2009,07,23,04,53,14.70
2009,07,23,04,54,14.60
2009,07,23,04,55,14.60
2009,07,23,04,56,14.60
2009,07,23,04,57,14.60
2009,07,23,04,58,14.60
2009,07,23,04,59,14.60
2009,07,23,05,00,14.60
2009,07,23,05,01,14.60
2009,07,23,05,02,14.60
2009,07,23,05,03,14.60
2009,07,23,05,04,14.60
2009,07,23,05,05,14.60
2009,07,23,05,06,14.60
2009,07,23,05,07,14.60
2009,07,23,05,08,14.60
2009,07,23,05,09,14.60
2009,07,23,05,10,14.60
2009,07,23,05,11,14.60
2009,07,23,05,12,14.60
2009,07,23,05,13,14.60
2009,07,23,05,14,14.60
2009,07,23,05,15,14.60
2009,07,23,05,16,14.60
2009,07,23,05,17,14.70
2009,07,23,05,18,14.70
2009,07,23,05,19,14.70
2009,07,23,05,20,14.60
2009,07,23,05,21,14.60
2009,07,23,05,22,14.60
2009,07,23,05,23,14.60
2009,07,23,05,24,14.60
2009,07,23,05,25,14.60
2009,07,23,05,26,14.60
2009,07,23,05,27,14.60
2009,07,23,05,28,14.60
2009,07,23,05,29,14.60
2009,07,23,05,30,14.60
2009,07,23,05,31,14.60
2009,07,23,05,32,14.60
2009,07,23,05,33,14.60
2009,07,23,05,34,14.60
2009,07,23,05,35,14.60
2009,07,23,05,36,14.60
2009,07,23,05,37,14.60
2009,07,23,05,38,14.60
2009,07,23,05,39,14.60
2009,07,23,05,40,14.60
2009,07,23,05,41,14.60
2009,07,23,05,42,14.60
2009,07,23,05,43,14.60
2009,07,23,05,44,14.60
2009,07,23,05,45,14.60
2009,07,23,05,46,14.70
2009,07,23,05,47,14.70
2009,07,23,05,48,14.70
2009,07,23,05,49,14.70
2009,07,23,05,50,14.70
2009,07,23,05,51,14.70
2009,07,23,05,52,14.70
2009,07,23,05,53,14.70
2009,07,23,05,54,14.70
2009,07,23,05,55,14.70
2009,07,23,05,56,14.70
2009,07,23,05,57,14.70
2009,07,23,05,58,14.70
2009,07,23,05,59,14.70
2009,07,23,06,00,14.70
2009,07,23,06,01,14.70
2009,07,23,06,02,14.70
2009,07,23,06,03,14.70
2009,07,23,06,04,14.70
2009,07,23,06,05,14.70
2009,07,23,06,06,14.70
2009,07,23,06,07,14.60
2009,07,23,06,08,14.60
2009,07,23,06,09,14.50
2009,07,23,06,10,14.50
2009,07,23,06,11,14.40
2009,07,23,06,12,14.40
2009,07,23,06,13,14.30
2009,07,23,06,14,14.30
2009,07,23,06,15,14.20
2009,07,23,06,16,14.20
2009,07,23,06,17,14.10
2009,07,23,06,18,14.10
2009,07,23,06,19,14.10
2009,07,23,06,20,14.10
2009,07,23,06,21,14.10
2009,07,23,06,22,14.10
2009,07,23,06,23,14.10
2009,07,23,06,24,14.10
2009,07,23,06,25,14.10
2009,07,23,06,26,14.20
2009,07,23,06,27,14.20
2009,07,23,06,28,14.20
2009,07,23,06,29,14.30
2009,07,23,06,30,14.30
2009,07,23,06,31,14.30
2009,07,23,06,32,14.30
2009,07,23,06,33,14.40
2009,07,23,06,34,14.40
2009,07,23,06,35,14.40
2009,07,23,06,36,14.40
2009,07,23,06,37,14.40
2009,07,23,06,38,14.40
2009,07,23,06,39,14.50
2009,07,23,06,40,14.50
2009,07,23,06,41,14.50
2009,07,23,06,42,14.50
2009,07,23,06,43,14.50
2009,07,23,06,44,14.50
2009,07,23,06,45,14.50
2009,07,23,06,46,14.50
2009,07,23,06,47,14.50
2009,07,23,06,48,14.50
2009,07,23,06,49,14.50
2009,07,23,06,50,14.50
2009,07,23,06,51,14.50
2009,07,23,06,52,14.60
2009,07,23,06,53,14.60
2009,07,23,06,54,14.60
2009,07,23,06,55,14.70
2009,07,23,06,56,14.70
2009,07,23,06,57,14.70
2009,07,23,06,58,14.80
2009,07,23,06,59,14.90
2009,07,23,07,00,15.00
2009,07,23,07,01,15.00
2009,07,23,07,02,15.00
2009,07,23,07,03,15.00
2009,07,23,07,04,15.10
2009,07,23,07,05,15.20
2009,07,23,07,06,15.30
2009,07,23,07,07,15.30
2009,07,23,07,08,15.30
2009,07,23,07,09,15.40
2009,07,23,07,10,15.40
2009,07,23,07,11,15.40
2009,07,23,07,12,15.50
2009,07,23,07,13,15.50
2009,07,23,07,14,15.50
2009,07,23,07,15,15.60
2009,07,23,07,16,15.60
2009,07,23,07,17,15.60
2009,07,23,07,18,15.70
2009,07,23,07,19,15.70
2009,07,23,07,20,15.80
2009,07,23,07,21,15.80
2009,07,23,07,22,15.90
2009,07,23,07,23,15.90
2009,07,23,07,24,16.00
2009,07,23,07,25,16.10
2009,07,23,07,26,16.20
2009,07,23,07,27,16.30
2009,07,23,07,28,16.40
2009,07,23,07,29,16.40
2009,07,23,07,30,16.50
2009,07,23,07,31,16.60
2009,07,23,07,32,16.60
2009,07,23,07,33,16.70
2009,07,23,07,34,16.70
2009,07,23,07,35,16.70
2009,07,23,07,36,16.80
2009,07,23,07,37,16.80
2009,07,23,07,38,16.80
2009,07,23,07,39,16.90
2009,07,23,07,40,16.90
2009,07,23,07,41,16.90
2009,07,23,07,42,17.00
2009,07,23,07,43,17.10
2009,07,23,07,44,17.10
2009,07,23,07,45,17.10
2009,07,23,07,46,17.10
2009,07,23,07,47,17.00
2009,07,23,07,48,17.00
2009,07,23,07,49,16.90
2009,07,23,07,50,16.80
2009,07,23,07,51,16.80
2009,07,23,07,52,16.80
2009,07,23,07,53,16.80
2009,07,23,07,54,16.80
2009,07,23,07,55,16.80
2009,07,23,07,56,16.80
2009,07,23,07,57,16.80
2009,07,23,07,58,16.80
2009,07,23,07,59,16.80
2009,07,23,08,00,16.70
2009,07,23,08,01,16.70
2009,07,23,08,02,16.80
2009,07,23,08,03,16.80
2009,07,23,08,04,16.80
2009,07,23,08,05,16.90
2009,07,23,08,06,16.90
2009,07,23,08,07,17.00
2009,07,23,08,08,17.00
2009,07,23,08,09,17.10
2009,07,23,08,10,17.10
2009,07,23,08,11,17.10
2009,07,23,08,12,17.10
2009,07,23,08,13,17.00
2009,07,23,08,14,17.00
2009,07,23,08,15,17.00
2009,07,23,08,16,17.00
2009,07,23,08,17,17.10
2009,07,23,08,18,17.10
2009,07,23,08,19,17.10
2009,07,23,08,20,17.10
2009,07,23,08,21,17.10
2009,07,23,08,22,17.10
2009,07,23,08,23,17.20
2009,07,23,08,24,17.20
2009,07,23,08,25,17.20
2009,07,23,08,26,17.20
2009,07,23,08,27,17.20
2009,07,23,08,28,17.30
2009,07,23,08,29,17.30
2009,07,23,08,30,17.30
2009,07,23,08,31,17.30
2009,07,23,08,32,17.30
2009,07,23,08,33,17.30
2009,07,23,08,34,17.30
2009,07,23,08,35,17.40
2009,07,23,08,36,17.40
2009,07,23,08,37,17.50
2009,07,23,08,38,17.50
2009,07,23,08,39,17.50
2009,07,23,08,40,17.40
2009,07,23,08,41,17.40
2009,07,23,08,42,17.40
2009,07,23,08,43,17.40
2009,07,23,08,44,17.30
2009,07,23,08,45,17.30
2009,07,23,08,46,17.20
2009,07,23,08,47,17.20
2009,07,23,08,48,17.20
2009,07,23,08,49,17.20
2009,07,23,08,50,17.30
2009,07,23,08,51,17.40
2009,07,23,08,52,17.40
2009,07,23,08,53,17.40
2009,07,23,08,54,17.40
2009,07,23,08,55,17.30
2009,07,23,08,56,17.30
2009,07,23,08,57,17.20
2009,07,23,08,58,17.20
2009,07,23,08,59,17.20
2009,07,23,09,00,17.20
2009,07,23,09,01,17.30
2009,07,23,09,02,17.30
2009,07,23,09,03,17.40
2009,07,23,09,04,17.40
2009,07,23,09,05,17.40
2009,07,23,09,06,17.40
2009,07,23,09,07,17.40
2009,07,23,09,08,17.40
2009,07,23,09,09,17.40
2009,07,23,09,10,17.40
2009,07,23,09,11,17.40
2009,07,23,09,12,17.40
2009,07,23,09,13,17.50
2009,07,23,09,14,17.60
2009,07,23,09,15,17.70
2009,07,23,09,16,17.70
2009,07,23,09,17,17.80
2009,07,23,09,18,17.80
2009,07,23,09,19,17.90
2009,07,23,09,20,17.90
2009,07,23,09,21,17.90
2009,07,23,09,22,17.90
2009,07,23,09,23,18.00
2009,07,23,09,24,18.00
2009,07,23,09,25,18.10
2009,07,23,09,26,18.10
2009,07,23,09,27,18.00
2009,07,23,09,28,18.00
2009,07,23,09,29,18.00
2009,07,23,09,30,18.00
2009,07,23,09,31,18.00
2009,07,23,09,32,17.90
2009,07,23,09,33,17.90
2009,07,23,09,34,17.90
2009,07,23,09,35,17.90
2009,07,23,09,36,17.80
2009,07,23,09,37,17.80
2009,07,23,09,38,17.70
2009,07,23,09,39,17.70
2009,07,23,09,40,17.60
2009,07,23,09,41,17.60
2009,07,23,09,42,17.60
2009,07,23,09,43,17.70
2009,07,23,09,44,17.80
2009,07,23,09,45,17.80
2009,07,23,09,46,17.80
2009,07,23,09,47,17.80
2009,07,23,09,48,17.90
2009,07,23,09,49,18.00
2009,07,23,09,50,18.00
2009,07,23,09,51,18.10
2009,07,23,09,52,18.10
2009,07,23,09,53,18.10
2009,07,23,09,54,18.00
2009,07,23,09,55,18.10
2009,07,23,09,56,18.10
2009,07,23,09,57,18.20
2009,07,23,09,58,18.20
2009,07,23,09,59,18.20
2009,07,23,10,00,18.30
2009,07,23,10,01,18.40
2009,07,23,10,02,18.40
2009,07,23,10,03,18.40
2009,07,23,10,04,18.30
2009,07,23,10,05,18.30
2009,07,23,10,06,18.30
2009,07,23,10,07,18.30
2009,07,23,10,08,18.30
2009,07,23,10,09,18.30
2009,07,23,10,10,18.20
2009,07,23,10,11,18.30
2009,07,23,10,12,18.30
2009,07,23,10,13,18.30
2009,07,23,10,14,18.30
2009,07,23,10,15,18.30
2009,07,23,10,16,18.30
2009,07,23,10,17,18.30
2009,07,23,10,18,18.30
2009,07,23,10,19,18.30
2009,07,23,10,20,18.40
2009,07,23,10,21,18.40
2009,07,23,10,22,18.40
2009,07,23,10,23,18.40
2009,07,23,10,24,18.40
2009,07,23,10,25,18.30
2009,07,23,10,26,18.30
2009,07,23,10,27,18.20
2009,07,23,10,28,18.10
2009,07,23,10,29,18.10
2009,07,23,10,30,18.20
2009,07,23,10,31,18.30
2009,07,23,10,32,18.30
2009,07,23,10,33,18.30
2009,07,23,10,34,18.30
2009,07,23,10,35,18.20
2009,07,23,10,36,18.20
2009,07,23,10,37,18.30
2009,07,23,10,38,18.30
2009,07,23,10,39,18.40
2009,07,23,10,40,18.50
2009,07,23,10,41,18.60
2009,07,23,10,42,18.70
2009,07,23,10,43,18.70
2009,07,23,10,44,18.70
2009,07,23,10,45,18.60
2009,07,23,10,46,18.60
2009,07,23,10,47,18.50
2009,07,23,10,48,18.50
2009,07,23,10,49,18.60
2009,07,23,10,50,18.60
2009,07,23,10,51,18.70
2009,07,23,10,52,18.80
2009,07,23,10,53,18.90
2009,07,23,10,54,19.10
2009,07,23,10,55,19.20
2009,07,23,10,56,19.20
2009,07,23,10,57,19.30
2009,07,23,10,58,19.20
2009,07,23,10,59,19.00
2009,07,23,11,00,18.90
2009,07,23,11,01,18.80
2009,07,23,11,02,18.60
2009,07,23,11,03,18.50
2009,07,23,11,04,18.50
2009,07,23,11,05,18.50
2009,07,23,11,06,18.50
2009,07,23,11,07,18.60
2009,07,23,11,08,18.70
2009,07,23,11,09,18.80
2009,07,23,11,10,18.90
2009,07,23,11,11,19.00
2009,07,23,11,12,19.20
2009,07,23,11,13,19.20
2009,07,23,11,14,19.30
2009,07,23,11,15,19.30
2009,07,23,11,16,19.20
2009,07,23,11,17,19.10
2009,07,23,11,18,19.10
2009,07,23,11,19,19.10
2009,07,23,11,20,19.00
2009,07,23,11,21,18.90
2009,07,23,11,22,18.80
2009,07,23,11,23,18.80
2009,07,23,11,24,18.80
2009,07,23,11,25,18.80
2009,07,23,11,26,18.80
2009,07,23,11,27,18.70
2009,07,23,11,28,18.60
2009,07,23,11,29,18.50
2009,07,23,11,30,18.40
2009,07,23,11,31,18.30
2009,07,23,11,32,18.40
2009,07,23,11,33,18.50
2009,07,23,11,34,18.50
2009,07,23,11,35,18.50
2009,07,23,11,36,18.60
2009,07,23,11,37,18.60
2009,07,23,11,38,18.60
2009,07,23,11,39,18.60
2009,07,23,11,40,18.60
2009,07,23,11,41,18.60
2009,07,23,11,42,18.60
2009,07,23,11,43,18.70
2009,07,23,11,44,18.70
2009,07,23,11,45,18.80
2009,07,23,11,46,18.90
2009,07,23,11,47,19.00
2009,07,23,11,48,19.10
2009,07,23,11,49,19.30
2009,07,23,11,50,19.40
2009,07,23,11,51,19.50
2009,07,23,11,52,19.50
2009,07,23,11,53,19.40
2009,07,23,11,54,19.40
2009,07,23,11,55,19.40
2009,07,23,11,56,19.40
2009,07,23,11,57,19.40
2009,07,23,11,58,19.50
2009,07,23,11,59,19.50
2009,07,23,12,00,19.50
2009,07,23,12,01,19.50
2009,07,23,12,02,19.50
2009,07,23,12,03,19.50
2009,07,23,12,04,19.50
2009,07,23,12,05,19.40
2009,07,23,12,06,19.50
2009,07,23,12,07,19.60
2009,07,23,12,08,19.60
2009,07,23,12,09,19.60
2009,07,23,12,10,19.50
2009,07,23,12,11,19.30
2009,07,23,12,12,19.20
2009,07,23,12,13,19.20
2009,07,23,12,14,19.30
2009,07,23,12,15,19.30
2009,07,23,12,16,19.30
2009,07,23,12,17,19.30
2009,07,23,12,18,19.30
2009,07,23,12,19,19.20
2009,07,23,12,20,19.30
2009,07,23,12,21,19.30
2009,07,23,12,22,19.30
2009,07,23,12,23,19.30
2009,07,23,12,24,19.30
2009,07,23,12,25,19.30
2009,07,23,12,26,19.40
2009,07,23,12,27,19.40
2009,07,23,12,28,19.50
2009,07,23,12,29,19.50
2009,07,23,12,30,19.60
2009,07,23,12,31,19.60
2009,07,23,12,32,19.60
2009,07,23,12,33,19.70
2009,07,23,12,34,19.70
2009,07,23,12,35,19.70
2009,07,23,12,36,19.70
2009,07,23,12,37,19.70
2009,07,23,12,38,19.80
2009,07,23,12,39,19.80
2009,07,23,12,40,19.80
2009,07,23,12,41,19.80
2009,07,23,12,42,19.80
2009,07,23,12,43,19.90
2009,07,23,12,44,20.00
2009,07,23,12,45,20.00
2009,07,23,12,46,20.10
2009,07,23,12,47,20.10
2009,07,23,12,48,20.10
2009,07,23,12,49,20.00
2009,07,23,12,50,20.00
2009,07,23,12,51,20.00
2009,07,23,12,52,20.00
2009,07,23,12,53,20.10
2009,07,23,12,54,20.10
2009,07,23,12,55,20.20
2009,07,23,12,56,20.20
2009,07,23,12,57,20.30
2009,07,23,12,58,20.30
2009,07,23,12,59,20.40
2009,07,23,13,00,20.50
2009,07,23,13,01,20.50
2009,07,23,13,02,20.60
2009,07,23,13,03,20.60
2009,07,23,13,04,20.60
2009,07,23,13,05,20.70
2009,07,23,13,06,20.70
2009,07,23,13,07,20.70
2009,07,23,13,08,20.80
2009,07,23,13,09,20.90
2009,07,23,13,10,21.00
2009,07,23,13,11,21.10
2009,07,23,13,12,21.20
2009,07,23,13,13,21.30
2009,07,23,13,14,21.20
2009,07,23,13,15,21.20
2009,07,23,13,16,21.20
2009,07,23,13,17,21.20
2009,07,23,13,18,21.20
2009,07,23,13,19,21.30
2009,07,23,13,20,21.40
2009,07,23,13,21,21.50
2009,07,23,13,22,21.60
2009,07,23,13,23,21.70
2009,07,23,13,24,21.60
2009,07,23,13,25,21.60
2009,07,23,13,26,21.50
2009,07,23,13,27,21.40
2009,07,23,13,28,21.40
2009,07,23,13,29,21.50
2009,07,23,13,30,21.40
2009,07,23,13,31,21.30
2009,07,23,13,32,21.20
2009,07,23,13,33,21.00
2009,07,23,13,34,21.00
2009,07,23,13,35,21.00
2009,07,23,13,36,21.10
2009,07,23,13,37,21.10
2009,07,23,13,38,21.10
2009,07,23,13,39,21.10
2009,07,23,13,40,21.10
2009,07,23,13,41,21.10
2009,07,23,13,42,21.20
2009,07,23,13,43,21.30
2009,07,23,13,44,21.40
2009,07,23,13,45,21.50
2009,07,23,13,46,21.70
2009,07,23,13,47,21.80
2009,07,23,13,48,22.00
2009,07,23,13,49,22.10
2009,07,23,13,50,22.00
2009,07,23,13,51,21.60
2009,07,23,13,52,20.90
2009,07,23,13,53,20.30
2009,07,23,13,54,19.80
2009,07,23,13,55,19.50
2009,07,23,13,56,19.20
2009,07,23,13,57,18.90
2009,07,23,13,58,18.70
2009,07,23,13,59,18.60
2009,07,23,14,00,18.60
2009,07,23,14,01,18.60
2009,07,23,14,02,18.70
2009,07,23,14,03,18.60
2009,07,23,14,04,18.60
2009,07,23,14,05,18.60
2009,07,23,14,06,18.60
2009,07,23,14,07,18.70
2009,07,23,14,08,18.80
2009,07,23,14,09,18.80
2009,07,23,14,10,18.80
2009,07,23,14,11,18.90
2009,07,23,14,12,18.90
2009,07,23,14,13,18.80
2009,07,23,14,14,18.70
2009,07,23,14,15,18.80
2009,07,23,14,16,18.90
2009,07,23,14,17,19.00
2009,07,23,14,18,19.10
2009,07,23,14,19,19.10
2009,07,23,14,20,19.20
2009,07,23,14,21,19.20
2009,07,23,14,22,19.20
2009,07,23,14,23,19.30
2009,07,23,14,24,19.20
2009,07,23,14,25,19.20
2009,07,23,14,26,19.20
2009,07,23,14,27,19.20
2009,07,23,14,28,19.10
2009,07,23,14,29,19.10
2009,07,23,14,30,19.10
2009,07,23,14,31,19.10
2009,07,23,14,32,19.10
2009,07,23,14,33,19.10
2009,07,23,14,34,19.20
2009,07,23,14,35,19.20
2009,07,23,14,36,19.30
2009,07,23,14,37,19.30
2009,07,23,14,38,19.30
2009,07,23,14,39,19.40
2009,07,23,14,40,19.40
2009,07,23,14,41,19.40
2009,07,23,14,42,19.40
2009,07,23,14,43,19.30
2009,07,23,14,44,19.30
2009,07,23,14,45,19.20
2009,07,23,14,46,19.30
2009,07,23,14,47,19.30
2009,07,23,14,48,19.30
2009,07,23,14,49,19.40
2009,07,23,14,50,19.30
2009,07,23,14,51,19.40
2009,07,23,14,52,19.40
2009,07,23,14,53,19.40
2009,07,23,14,54,19.30
2009,07,23,14,55,19.30
2009,07,23,14,56,19.30
2009,07,23,14,57,19.30
2009,07,23,14,58,19.40
2009,07,23,14,59,19.50
2009,07,23,15,00,19.60
2009,07,23,15,01,19.80
2009,07,23,15,02,19.90
2009,07,23,15,03,20.00
2009,07,23,15,04,20.10
2009,07,23,15,05,20.20
2009,07,23,15,06,20.40
2009,07,23,15,07,20.60
2009,07,23,15,08,20.60
2009,07,23,15,09,20.70
2009,07,23,15,10,20.70
2009,07,23,15,11,20.60
2009,07,23,15,12,20.60
2009,07,23,15,13,20.50
2009,07,23,15,14,20.50
2009,07,23,15,15,20.50
2009,07,23,15,16,20.40
2009,07,23,15,17,20.30
2009,07,23,15,18,20.30
2009,07,23,15,19,20.10
2009,07,23,15,20,20.10
2009,07,23,15,21,20.20
2009,07,23,15,22,20.20
2009,07,23,15,23,20.20
2009,07,23,15,24,20.20
2009,07,23,15,25,20.10
2009,07,23,15,26,20.10
2009,07,23,15,27,20.10
2009,07,23,15,28,20.10
2009,07,23,15,29,20.10
2009,07,23,15,30,20.10
2009,07,23,15,31,20.10
2009,07,23,15,32,20.20
2009,07,23,15,33,20.10
2009,07,23,15,34,20.10
2009,07,23,15,35,20.00
2009,07,23,15,36,19.90
2009,07,23,15,37,19.90
2009,07,23,15,38,19.80
2009,07,23,15,39,19.80
2009,07,23,15,40,19.80
2009,07,23,15,41,19.80
2009,07,23,15,42,19.80
2009,07,23,15,43,19.90
2009,07,23,15,44,19.90
2009,07,23,15,45,19.90
2009,07,23,15,46,19.90
2009,07,23,15,47,20.00
2009,07,23,15,48,20.00
2009,07,23,15,49,20.00
2009,07,23,15,50,20.00
2009,07,23,15,51,20.00
2009,07,23,15,52,20.10
2009,07,23,15,53,20.20
2009,07,23,15,54,20.20
2009,07,23,15,55,20.20
2009,07,23,15,56,20.20
2009,07,23,15,57,20.20
2009,07,23,15,58,20.20
2009,07,23,15,59,20.20
2009,07,23,16,00,20.20
2009,07,23,16,01,20.20
2009,07,23,16,02,20.10
2009,07,23,16,03,20.20
2009,07,23,16,04,20.20
2009,07,23,16,05,20.20
2009,07,23,16,06,20.20
2009,07,23,16,07,20.20
2009,07,23,16,08,20.20
2009,07,23,16,09,20.20
2009,07,23,16,10,20.20
2009,07,23,16,11,20.20
2009,07,23,16,12,20.30
2009,07,23,16,13,20.30
2009,07,23,16,14,20.30
2009,07,23,16,15,20.20
2009,07,23,16,16,20.20
2009,07,23,16,17,20.20
2009,07,23,16,18,20.20
2009,07,23,16,19,20.10
2009,07,23,16,20,20.20
2009,07,23,16,21,20.20
2009,07,23,16,22,20.20
2009,07,23,16,23,20.30
2009,07,23,16,24,20.30
2009,07,23,16,25,20.30
2009,07,23,16,26,20.40
2009,07,23,16,27,20.40
2009,07,23,16,28,20.50
2009,07,23,16,29,20.50
2009,07,23,16,30,20.50
2009,07,23,16,31,20.50
2009,07,23,16,32,20.50
2009,07,23,16,33,20.40
2009,07,23,16,34,20.30
2009,07,23,16,35,20.20
2009,07,23,16,36,20.10
2009,07,23,16,37,20.00
2009,07,23,16,38,20.00
2009,07,23,16,39,19.90
2009,07,23,16,40,19.80
2009,07,23,16,41,19.80
2009,07,23,16,42,19.80
2009,07,23,16,43,19.80
2009,07,23,16,44,19.80
2009,07,23,16,45,19.80
2009,07,23,16,46,20.00
2009,07,23,16,47,20.00
2009,07,23,16,48,20.00
2009,07,23,16,49,20.00
2009,07,23,16,50,20.00
2009,07,23,16,51,20.00
2009,07,23,16,52,20.00
2009,07,23,16,53,20.10
2009,07,23,16,54,20.30
2009,07,23,16,55,20.30
2009,07,23,16,56,20.30
2009,07,23,16,57,20.40
2009,07,23,16,58,20.50
2009,07,23,16,59,20.60
2009,07,23,17,00,20.60
2009,07,23,17,01,20.70
2009,07,23,17,02,20.80
2009,07,23,17,03,20.80
2009,07,23,17,04,20.70
2009,07,23,17,05,20.60
2009,07,23,17,06,20.50
2009,07,23,17,07,20.40
2009,07,23,17,08,20.40
2009,07,23,17,09,20.30
2009,07,23,17,10,20.30
2009,07,23,17,11,20.30
2009,07,23,17,12,20.30
2009,07,23,17,13,20.30
2009,07,23,17,14,20.30
2009,07,23,17,15,20.30
2009,07,23,17,16,20.30
2009,07,23,17,17,20.20
2009,07,23,17,18,20.20
2009,07,23,17,19,20.20